Regional Weather Roundup
Issued by NWS Newport/Morehead, NC

Home | Current Version | Previous Version | Text Only | Print | Product List | Glossary On
Versions: 1 2 3 4 5 6 7 8 9 10 11 12 13 14 15 16 17 18 19 20 21 22 23 24 25 26 27 28 29 30 31 32 33 34 35 36 37 38 39 40 41 42 43 44 45 46 47 48 49 50
000
ASUS42 KMHX 292025
RWRMHX
WEATHER ROUNDUP FOR EASTERN NORTH CAROLINA
NATIONAL WEATHER SERVICE NEWPORT/MOREHEAD CITY NC
400 PM EDT FRI APR 29 2016

NOTE: "FAIR" INDICATES FEW OR NO CLOUDS BELOW 12,000 FEET
WITH NO SIGNIFICANT WEATHER AND/OR OBSTRUCTIONS TO VISIBILITY

NCZ015>017-031-032-045>047-102-103-292100-
NORTH COAST

CITY           SKY/WX    TMP DP  RH WIND       PRES   REMARKS
EDENTON        CLOUDY    65  60  84 NW8       30.00R
ELIZABETH CITY CLOUDY    63  57  81 N12       29.99S
KITTY HAWK     CLOUDY    59  54  83 N13G20    29.97R
MANTEO         NOT AVBL

$$

NCZ045>047-081-094-103-104-292100-
CENTRAL COAST

CITY           SKY/WX    TMP DP  RH WIND       PRES   REMARKS
FRISCO         SUNNY     70  61  73 VRB6      29.94S
SWANQUARTER    NOT AVBL

$$

NCZ095-097-098-100-101-292100-
SOUTHERN COAST

CITY           SKY/WX    TMP DP  RH WIND       PRES   REMARKS
BEAUFORT       MOSUNNY   74  62  66 NW12      29.96R
CEDAR ISLAND   NOT AVBL
JACKSONVILLE   PTSUNNY   74  59  59 N8        29.97R
PINEY ISLAND   NOT AVBL
WILMINGTON     SUNNY     74  63  68 E9        29.96S


$$

NCZ011>013-027>030-043-044-078>080-089-090>093-098-292100-
COASTAL PLAIN

CITY           SKY/WX    TMP DP  RH WIND       PRES   REMARKS
AHOSKIE        PTSUNNY   62  57  83 NW3       30.01S
CLINTON        SUNNY     76  62  61 NE3       29.98S
ELIZABETHTOWN  MOSUNNY   81  56  42 CALM      29.95F
GOLDSBORO      MOSUNNY   70  61  73 N8        29.98S
GREENVILLE     CLOUDY    64  59  82 NW6       30.02S
HAVELOCK       PTSUNNY   71  61  70 N10       29.98S
KENANSVILLE    MOSUNNY   72  58  62 N7        30.00S
KINSTON        PTSUNNY   68  59  73 N9        30.01S
NEW BERN       CLOUDY    70  59  68 NW9       29.99S
RICHLANDS      SUNNY     75  59  57 VRB7      29.98S
ROCKY MOUNT    PTSUNNY   68  58  70 NE5       30.00F
WASHINGTON     CLOUDY    66  59  78 NW5       30.00R
WHITEVILLE     MOSUNNY   83  58  42 CALM      29.95S

$$

AMZ130-135-150-152-154-156-158-170-250-252-270-ANZ085-086-088-633-658-670-292100-
MARINE OBSERVATIONS

STATION/POSITION TIME  TEMP    WIND        PRES    WAVE   SWELL
                       AIR SEA DIR/SP/G            HT/PER HT/PER
                 (UTC) (F)     (DEG/KT/KT) (MB)    (FT/S) (FT/S)
CHESAPEAKE LIGHT 2000   54     360/ 16/ 17 1016.5
64 E VA BEACH    1950   54 54  340/ 19/ 21 1013.7    5/ 7   3/ 7
DUCK             2000   56 67  360/ 18/ 20 1014.6
2 E DUCK         1911      59                N/A     3/ 5
OREGON INLET     2000   60 63  350/ 15/ 21 1014.2
13E OREGON INLT  2000      59                N/A     4/ 5   2/ 8
HATTERAS CG      2000   67 70  350/ 11/ 13 1013.5
DIAMOND BUOY     1950   66 74  350/ 14/ 17 1013.3    3/ 8   2/ 8
CAPE LOOKOUT     2000   71     290/  9/ 11 1013.7
BEAUFORT LAB     2000   72 68  350/  7/ 10 1013.4
30 SE NEW RVR IN 1925      67                N/A     3/ 4
27 SE WRIGHTSVLE 2008   68 69   30/  8/ 10 1014.3
5 SE WRIGHTSVLE  2008   67 68  100/  8/ 12 1015.1
225 S CAPE HAT   1950   72 71  210/ 14/ 16 1012.8    4/ 5   2/10
41 SE CHARLESTON 1950   72 73   60/  8/ 10 1013.8    2/ 9   2/ 9

$$




USA.gov is the U.S. government's official web portal to all federal, state and local government web resources and services.